Miscellaneous Local Product
Issued by NWS North Platte, NE

Home | Current Version | Previous Version | Text Only | Print | Product List | Glossary On
Versions: 1 2 3 4 5 6 7 8 9 10 11 12 13 14 15 16 17 18 19 20 21 22 23 24 25 26 27 28 29 30 31 32 33 34 35 36 37 38 39 40 41 42 43 44 45 46 47 48 49 50
000
AXUS43 KLBF 271510
MISLBF


WESTERN AND NORTH CENTRAL NEBRASKA HOURLY WEATHER ROUNDUP
NATIONAL WEATHER SERVICE NORTH PLATTE NE
1000 AM CDT MON MAR 27 2017

NOTE: "FAIR" INDICATES FEW OR NO CLOUDS BELOW 12,000 FEET WITH NO
SIGNIFICANT WEATHER AND/OR OBSTRUCTIONS TO VISIBILITY.

NOTE: STATIONS NOT REPORTING VARIABLES SUCH AS SKY/WEATHER OR
PRESSURE ARE PROVIDED BY RAWS AND APRS NETWORKS AND ARE NOT UNDER
NATIONAL WEATHER SERVICE QUALITY CONTROL.

...OBSERVATIONS IN AND NEAR THE EASTERN PANHANDLE OF NEBRASKA...

CITY           SKY/WX    TMP DP  RH WIND       PRES   REMARKS
PINE RIDGE     MOSUNNY   45  40  82 CALM      29.90S
CHADRON        PTSUNNY   36  34  92 NE5       29.88F WCI  32
ALLIANCE       SUNNY     39  38  96 S6        29.90S WCI  35
SIDNEY         SUNNY     43  39  86 SW7       29.94R
CRESCENT LAKE    N/A     43  43 100 SW5         N/A
$$

...OBSERVATIONS IN NORTHERN NEBRASKA AND FAR SOUTHERN SOUTH DAKOTA...

CITY           SKY/WX    TMP DP  RH WIND       PRES   REMARKS
WINNER         FAIR      43  40  89 SW3       29.95S
VALENTINE      PTSUNNY   40  38  93 S8        29.95R WCI  34
THEDFORD       FOG       40  40  99 CALM      29.96S VSB 1/4
AINSWORTH      CLOUDY    42  42 100 CALM      29.95S FOG
O`NEILL        CLOUDY    43  38  80 CALM      29.98R
ORD            CLOUDY    44  39  82 W5        29.96S
BROKEN BOW     CLOUDY    43  32  65 E3        29.96R
VALENTINE NWR    N/A     40  40 100 SE3         N/A
HALSEY           N/A     38  38 100 CALM        N/A
BUTTE            N/A     42  41  96 SE6         N/A
CHAMBERS         N/A     47  40  77 CALM        N/A
EWING            N/A     43  38  82 CALM        N/A
$$

...OBSERVATIONS IN SOUTHWEST NEBRASKA AND FAR NORTHEAST COLORADO...

CITY           SKY/WX    TMP DP  RH WIND       PRES   REMARKS
HOLYOKE        FAIR      46  37  71 W6        29.94S
IMPERIAL       SUNNY     42  37  82 NW5       29.95R
OGALLALA       SUNNY     41  37  86 CALM      29.94F
NORTH PLATTE   FOG       39  37  92 CALM      29.96R VSB<1/4
MCCOOK         SUNNY     41  38  89 S5        29.96S
LEXINGTON      FOG       42  41  95 CALM      29.98R VSB 1/4
STAPLETON        N/A     35  34  97 CALM        N/A
GOTHENBURG       N/A     37  37  99 SE5         N/A  WCI  33
CALLAWAY         N/A     36  35  98 SE6         N/A  WCI  31
$$

...OBSERVATIONS IN CENTRAL LINCOLN COUNTY AREA...

CITY           SKY/WX    TMP DP  RH WIND       PRES   REMARKS
N.P. AIRPORT   FOG       39  37  92 CALM      29.96R VSB<1/4
N.P. DOWNTOWN    N/A     36  35  96 CALM        N/A
N.P. SOUTHEAST   N/A     37  36  95 CALM        N/A
N.P. HILLCREST   N/A     38  37  97 CALM        N/A
$$

...SOME OBSERVATIONS FROM AROUND THE REGION...

CITY           SKY/WX    TMP DP  RH WIND       PRES   REMARKS
DENVER         MOSUNNY   42  37  82 S3        29.93S
LIMON          SUNNY     42  38  85 CALM      29.96F
ASPEN          CLOUDY    38  21  50 CALM      29.95F
LARAMIE        CLOUDY    33  28  81 SW9       29.93R WCI  25
CASPER         SUNNY     44  26  49 SW14G20   29.87R
CHEYENNE       PTSUNNY   38  36  92 SW8       29.94R FOG     WCI  32
SCOTTSBLUFF    SUNNY     39  34  82 SE6       29.92R WCI  35
GRAND ISLAND   CLOUDY    44  42  93 N5        29.98R
OMAHA          CLOUDY    46  39  76 N7        29.98R
SIOUX FALLS    CLOUDY    46  39  76 CALM      29.97F
PIERRE         CLOUDY    44  39  82 E3        29.94R
RAPID CITY     MOSUNNY   36  34  92 E3        29.89F
BISMARCK       CLOUDY    43  35  73 CALM      29.94R
KANSAS CITY    CLOUDY    48  47  96 NE14      29.89S
HILL CITY      CLOUDY    43  43 100 E3        29.99R FOG
WICHITA        DRIZZLE   48  46  93 N14       29.94R
DODGE CITY     SUNNY     47  41  80 NE7       29.99R
OKLAHOMA CITY  CLOUDY    52  47  83 N17       29.94R
DALLAS         MOSUNNY   60  51  72 NW12      29.91R
AMARILLO       SUNNY     47  38  71 N8        30.02R
$$




USA.gov is the U.S. government's official web portal to all federal, state and local government web resources and services.